Weather History for KLAN - May, 2013

Change the Weather History Date:

Thursday, May 2, 2013

  Actual Average Record
Temperature  
Mean Temperature 70 °F 53 °F  
Max Temperature 80 °F 64 °F 86 °F (1959)
Min Temperature 59 °F 42 °F 20 °F (1867)
Degree Days  
Heating Degree Days 0 12  
Month to date heating degree days 0 24  
Since 1 July heating degree days 6341 6422  
Cooling Degree Days 5 0  
Month to date cooling degree days 10 0  
Year to date cooling degree days 10 7  
Growing Degree Days 20 (Base 50)    
Moisture  
Dew Point 50 °F    
Average Humidity 57    
Maximum Humidity 78    
Minimum Humidity 36    
Precipitation  
Precipitation 0.00 in 0.10 in 1.25 in (1910)
Month to date precipitation 0.00 0.20  
Year to date precipitation 14.05 8.41  
Snow  
Snow 0.00 in 0.00 in 2.40 in (1929)
Month to date snowfall 0.0 0.0  
Since 1 July snowfall 30.2 51.1  
Snow Depth 0.00 in    
Sea Level Pressure  
Sea Level Pressure 30.17 in    
Wind  
Wind Speed 10 mph (SE)    
Max Wind Speed 22 mph    
Max Gust Speed 28 mph    
Visibility 10 miles    
Events      
T = Trace of Precipitation, MM = Missing Value Source: NWS Daily Summary

Daily Weather History Graph

Daily Weather History Graph

Search for Another Location

Airport or City:

Trip Planner

Search our weather history database for the weather conditions in past years. The results will help you decide how hot, cold, wet, or windy it might be!

Date:

Astronomy

May. 02, 2013 Rise Set
Actual Time 6:30 AM EDT 8:40 PM EDT
Civil Twilight 5:59 AM EDT 9:11 PM EDT
Nautical Twilight 5:21 AM EDT 9:49 PM EDT
Astronomical Twilight 4:39 AM EDT 10:32 PM EDT
Moon 2:28 AM EDT (5/2) 1:18 PM EDT (5/2)
Length of Visible Light 15h 11m
Length of Day
14h 09m
Waning Gibbous, 48% of the Moon is Illuminated
May 2
Waning Gibbous
May 9
New
May 18
First Quarter
May 25
Full
May 31
Last Quarter

Hourly Weather History & Observations

Time (EDT) Temp. Dew Point Humidity Pressure Visibility Wind Dir Wind Speed Gust Speed Precip Events Conditions
12:53 AM 66.9 °F 53.1 °F 61% 30.22 in 10.0 mi SE 10.4 mph - N/A   Clear
1:53 AM 64.0 °F 53.1 °F 67% 30.21 in 10.0 mi SE 9.2 mph - N/A   Clear
2:53 AM 62.1 °F 53.1 °F 72% 30.20 in 10.0 mi SE 9.2 mph - N/A   Clear
3:53 AM 61.0 °F 53.1 °F 75% 30.19 in 10.0 mi ESE 5.8 mph - N/A   Clear
4:53 AM 61.0 °F 51.1 °F 70% 30.19 in 10.0 mi SE 6.9 mph - N/A   Clear
5:53 AM 60.1 °F 50.0 °F 69% 30.19 in 10.0 mi SSE 6.9 mph - N/A   Clear
6:53 AM 59.0 °F 48.9 °F 69% 30.20 in 10.0 mi SE 8.1 mph - N/A   Clear
7:53 AM 62.1 °F 48.9 °F 62% 30.22 in 10.0 mi SE 8.1 mph - N/A   Clear
8:53 AM 64.9 °F 50.0 °F 58% 30.22 in 10.0 mi SE 9.2 mph - N/A   Clear
9:53 AM 68.0 °F 50.0 °F 52% 30.22 in 10.0 mi ESE 8.1 mph - N/A   Clear
10:53 AM 72.0 °F 52.0 °F 49% 30.21 in 10.0 mi ESE 5.8 mph - N/A   Clear
11:53 AM 73.9 °F 53.1 °F 48% 30.20 in 10.0 mi SE 10.4 mph - N/A   Clear
12:53 PM 75.9 °F 53.1 °F 45% 30.19 in 10.0 mi ESE 10.4 mph - N/A   Clear
1:53 PM 77.0 °F 53.1 °F 43% 30.17 in 10.0 mi SE 9.2 mph - N/A   Clear
2:53 PM 79.0 °F 54.0 °F 42% 30.16 in 10.0 mi SSE 11.5 mph 19.6 mph N/A   Scattered Clouds
3:53 PM 78.1 °F 52.0 °F 40% 30.14 in 10.0 mi ESE 12.7 mph 17.3 mph N/A   Scattered Clouds
4:53 PM 78.1 °F 52.0 °F 40% 30.12 in 10.0 mi SSE 17.3 mph 20.7 mph N/A   Mostly Cloudy
5:53 PM 77.0 °F 48.9 °F 37% 30.11 in 10.0 mi South 15.0 mph 21.9 mph N/A   Clear
6:53 PM 77.0 °F 48.0 °F 36% 30.10 in 10.0 mi SSE 11.5 mph - N/A   Mostly Cloudy
7:53 PM 73.9 °F 48.9 °F 41% 30.10 in 10.0 mi SE 19.6 mph 24.2 mph N/A   Clear
8:53 PM 71.1 °F 46.9 °F 42% 30.12 in 10.0 mi SE 15.0 mph 21.9 mph N/A   Clear
9:53 PM 69.1 °F 46.0 °F 44% 30.13 in 10.0 mi SE 12.7 mph - N/A   Clear
10:53 PM 66.9 °F 46.9 °F 49% 30.14 in 10.0 mi SSE 11.5 mph - N/A   Clear
11:53 PM 64.0 °F 46.0 °F 52% 30.13 in 10.0 mi SSE 3.5 mph - N/A   Clear